owner,sensor,date,latitude,longitude,vertical_datum,direction_of_sea_water_velocity,sea_water_speed,upward_sea_water_velocity,qcFlag 
TABS,ioos:station:wmo:42049:1,2002-10-01T00:00:00Z,28.3507,-96.0058,2.0,38.99710638,10.61531441,-99999.0,'11111222,11111222,99999999' 
TABS,ioos:station:wmo:42049:1,2002-10-01T00:30:00Z,28.3507,-96.0058,2.0,38.27086713,12.18964314,-99999.0,'11111222,11111222,99999999' 
TABS,ioos:station:wmo:42049:1,2002-10-01T01:00:00Z,28.3507,-96.0058,2.0,46.35329402,11.67758965,-99999.0,'11111222,11111222,99999999' 
TABS,ioos:station:wmo:42049:1,2002-10-01T01:30:00Z,28.3507,-96.0058,2.0,43.89932185,8.465630514,-99999.0,'11133222,11111222,99999999' 
TABS,ioos:station:wmo:42049:1,2002-10-01T02:00:00Z,28.3507,-96.0058,2.0,26.82436385,12.85305022,-99999.0,'11111222,11111222,99999999' 
TABS,ioos:station:wmo:42049:1,2002-10-01T02:30:00Z,28.3507,-96.0058,2.0,28.78245722,14.10225868,-99999.0,'11111222,11111222,99999999' 
TABS,ioos:station:wmo:42049:1,2002-10-01T03:00:00Z,28.3507,-96.0058,2.0,31.2726117,14.00477776,-99999.0,'11111222,11111222,99999999' 
TABS,ioos:station:wmo:42049:1,2002-10-01T03:30:00Z,28.3507,-96.0058,2.0,30.19814176,14.11559421,-99999.0,'11111222,11111222,99999999' 
TABS,ioos:station:wmo:42049:1,2002-10-01T04:00:00Z,28.3507,-96.0058,2.0,57.34967199,11.76990229,-99999.0,'11111222,11111222,99999999' 
TABS,ioos:station:wmo:42049:1,2002-10-01T04:30:00Z,28.3507,-96.0058,2.0,32.57419142,13.67040599,-99999.0,'11111222,11111222,99999999' 
TABS,ioos:station:wmo:42049:1,2002-10-01T05:00:00Z,28.3507,-96.0058,2.0,38.51227948,11.5147297,-99999.0,'11111222,11111222,99999999' 
TABS,ioos:station:wmo:42049:1,2002-10-01T05:30:00Z,28.3507,-96.0058,2.0,42.7930489,10.46587311,-99999.0,'11111222,11111222,99999999' 
TABS,ioos:station:wmo:42049:1,2002-10-01T06:00:00Z,28.3507,-96.0058,2.0,38.52044232,13.47158862,-99999.0,'11111222,11111222,99999999' 
TABS,ioos:station:wmo:42049:1,2002-10-01T06:30:00Z,28.3507,-96.0058,2.0,31.19620149,13.95838458,-99999.0,'11111222,11111222,99999999' 
TABS,ioos:station:wmo:42049:1,2002-10-01T07:00:00Z,28.3507,-96.0058,2.0,31.5566158,11.77057773,-99999.0,'11111222,11111222,99999999' 
TABS,ioos:station:wmo:42049:1,2002-10-01T07:30:00Z,28.3507,-96.0058,2.0,35.36258965,10.64368357,-99999.0,'11111222,11111222,99999999' 
TABS,ioos:station:wmo:42049:1,2002-10-01T08:00:00Z,28.3507,-96.0058,2.0,33.38365218,10.88614716,-99999.0,'11111222,11111222,99999999' 
TABS,ioos:station:wmo:42049:1,2002-10-01T08:30:00Z,28.3507,-96.0058,2.0,34.32269214,9.044937811,-99999.0,'11133222,11111222,99999999' 
TABS,ioos:station:wmo:42049:1,2002-10-01T09:00:00Z,28.3507,-96.0058,2.0,33.31224241,9.249827025,-99999.0,'11133222,11111222,99999999' 
TABS,ioos:station:wmo:42049:1,2002-10-01T09:30:00Z,28.3507,-96.0058,2.0,26.51970874,11.26531402,-99999.0,'11111222,11111222,99999999' 
TABS,ioos:station:wmo:42049:1,2002-10-01T10:00:00Z,28.3507,-96.0058,2.0,42.45284892,10.9780736,-99999.0,'11111222,11111222,99999999' 
TABS,ioos:station:wmo:42049:1,2002-10-01T10:30:00Z,28.3507,-96.0058,2.0,39.99372504,10.53365084,-99999.0,'11111222,11111222,99999999' 
TABS,ioos:station:wmo:42049:1,2002-10-01T11:00:00Z,28.3507,-96.0058,2.0,32.22542427,12.1519052,-99999.0,'11111222,11111222,99999999' 
TABS,ioos:station:wmo:42049:1,2002-10-01T11:30:00Z,28.3507,-96.0058,2.0,28.87165965,10.33453434,-99999.0,'11111222,11111222,99999999' 
TABS,ioos:station:wmo:42049:1,2002-10-01T12:00:00Z,28.3507,-96.0058,2.0,34.99818503,7.776149433,-99999.0,'11133222,11111222,99999999' 
TABS,ioos:station:wmo:42049:1,2002-10-01T12:30:00Z,28.3507,-96.0058,2.0,42.93383386,10.39415701,-99999.0,'11111222,11111222,99999999' 
TABS,ioos:station:wmo:42049:1,2002-10-01T13:00:00Z,28.3507,-96.0058,2.0,35.24031003,10.97043755,-99999.0,'11111222,11111222,99999999' 
TABS,ioos:station:wmo:42049:1,2002-10-01T13:30:00Z,28.3507,-96.0058,2.0,35.77199819,11.37608896,-99999.0,'11111222,11111222,99999999' 
TABS,ioos:station:wmo:42049:1,2002-10-01T14:00:00Z,28.3507,-96.0058,2.0,24.77129144,10.000125,-99999.0,'11111222,11111222,99999999' 
TABS,ioos:station:wmo:42049:1,2002-10-01T14:30:00Z,28.3507,-96.0058,2.0,28.25874507,11.04652887,-99999.0,'11111222,11111222,99999999' 
TABS,ioos:station:wmo:42049:1,2002-10-01T15:00:00Z,28.3507,-96.0058,2.0,13.5456228,10.75927507,-99999.0,'11111222,11111222,99999999' 
TABS,ioos:station:wmo:42049:1,2002-10-01T15:30:00Z,28.3507,-96.0058,2.0,6.433481084,8.835638064,-99999.0,'11133222,11111222,99999999' 
TABS,ioos:station:wmo:42049:1,2002-10-01T16:00:00Z,28.3507,-96.0058,2.0,9.144506296,12.14434025,-99999.0,'11111222,11111222,99999999' 
TABS,ioos:station:wmo:42049:1,2002-10-01T16:30:00Z,28.3507,-96.0058,2.0,168.7809735,11.10214844,-99999.0,'11111222,11111222,99999999' 
TABS,ioos:station:wmo:42049:1,2002-10-01T17:00:00Z,28.3507,-96.0058,2.0,189.5844773,20.7800794,-99999.0,'11111222,11111222,99999999' 
TABS,ioos:station:wmo:42049:1,2002-10-01T17:30:00Z,28.3507,-96.0058,2.0,193.4857951,22.98373555,-99999.0,'11111222,11111222,99999999' 
TABS,ioos:station:wmo:42049:1,2002-10-01T18:00:00Z,28.3507,-96.0058,2.0,191.5929895,27.3683412,-99999.0,'11111222,11111222,99999999' 
TABS,ioos:station:wmo:42049:1,2002-10-01T18:30:00Z,28.3507,-96.0058,2.0,197.5459578,25.07671629,-99999.0,'11111222,11111222,99999999' 
TABS,ioos:station:wmo:42049:1,2002-10-01T19:00:00Z,28.3507,-96.0058,2.0,198.5301757,24.66896228,-99999.0,'11111222,11111222,99999999' 
TABS,ioos:station:wmo:42049:1,2002-10-01T19:30:00Z,28.3507,-96.0058,2.0,199.7164838,27.56614772,-99999.0,'11111222,11111222,99999999' 
TABS,ioos:station:wmo:42049:1,2002-10-01T20:00:00Z,28.3507,-96.0058,2.0,206.9845194,24.41851756,-99999.0,'11111222,11111222,99999999' 
TABS,ioos:station:wmo:42049:1,2002-10-01T20:30:00Z,28.3507,-96.0058,2.0,212.6372208,23.25140856,-99999.0,'11111222,11111222,99999999' 
TABS,ioos:station:wmo:42049:1,2002-10-01T21:00:00Z,28.3507,-96.0058,2.0,214.1250217,21.17629099,-99999.0,'11111222,11111222,99999999' 
TABS,ioos:station:wmo:42049:1,2002-10-01T21:30:00Z,28.3507,-96.0058,2.0,221.6309721,21.0586728,-99999.0,'11111222,11111222,99999999' 
TABS,ioos:station:wmo:42049:1,2002-10-01T22:00:00Z,28.3507,-96.0058,2.0,225.3425626,23.63193179,-99999.0,'11111222,11111222,99999999' 
TABS,ioos:station:wmo:42049:1,2002-10-01T22:30:00Z,28.3507,-96.0058,2.0,234.5257299,22.98682231,-99999.0,'11111222,11111222,99999999' 
TABS,ioos:station:wmo:42049:1,2002-10-01T23:00:00Z,28.3507,-96.0058,2.0,230.3395883,22.18630208,-99999.0,'11111222,11111222,99999999' 
TABS,ioos:station:wmo:42049:1,2002-10-01T23:30:00Z,28.3507,-96.0058,2.0,238.8141175,23.03929252,-99999.0,'11111222,11111222,99999999' 
TABS,ioos:station:wmo:42049:1,2002-10-02T00:00:00Z,28.3507,-96.0058,2.0,233.1242622,20.8140001,-99999.0,'11111222,11111222,99999999' 
TABS,ioos:station:wmo:42049:1,2002-10-02T00:30:00Z,28.3507,-96.0058,2.0,246.8565908,17.60688786,-99999.0,'11111222,11111222,99999999' 
TABS,ioos:station:wmo:42049:1,2002-10-02T01:00:00Z,28.3507,-96.0058,2.0,269.3772227,15.6509233,-99999.0,'11111222,11111222,99999999' 
TABS,ioos:station:wmo:42049:1,2002-10-02T01:30:00Z,28.3507,-96.0058,2.0,318.4926431,14.74226916,-99999.0,'11111222,11111222,99999999' 
TABS,ioos:station:wmo:42049:1,2002-10-02T02:00:00Z,28.3507,-96.0058,2.0,327.4831703,15.31016003,-99999.0,'11111222,11111222,99999999' 
TABS,ioos:station:wmo:42049:1,2002-10-02T02:30:00Z,28.3507,-96.0058,2.0,328.5269391,14.26924665,-99999.0,'11111222,11111222,99999999' 
TABS,ioos:station:wmo:42049:1,2002-10-02T03:00:00Z,28.3507,-96.0058,2.0,323.7503328,15.89693052,-99999.0,'11111222,11111222,99999999' 
TABS,ioos:station:wmo:42049:1,2002-10-02T03:30:00Z,28.3507,-96.0058,2.0,321.3672738,16.70590913,-99999.0,'11111222,11111222,99999999' 
TABS,ioos:station:wmo:42049:1,2002-10-02T04:00:00Z,28.3507,-96.0058,2.0,322.9393233,16.79209338,-99999.0,'11111222,11111222,99999999' 
TABS,ioos:station:wmo:42049:1,2002-10-02T04:30:00Z,28.3507,-96.0058,2.0,319.0277792,14.39689203,-99999.0,'11111222,11111222,99999999' 
TABS,ioos:station:wmo:42049:1,2002-10-02T05:00:00Z,28.3507,-96.0058,2.0,316.6086262,16.37597325,-99999.0,'11111222,11111222,99999999' 
TABS,ioos:station:wmo:42049:1,2002-10-02T05:30:00Z,28.3507,-96.0058,2.0,318.3312253,14.72562732,-99999.0,'11111222,11111222,99999999' 
TABS,ioos:station:wmo:42049:1,2002-10-02T06:00:00Z,28.3507,-96.0058,2.0,318.1254235,14.78637887,-99999.0,'11111222,11111222,99999999' 
TABS,ioos:station:wmo:42049:1,2002-10-02T06:30:00Z,28.3507,-96.0058,2.0,315.8238104,13.77586295,-99999.0,'11111222,11111222,99999999' 
TABS,ioos:station:wmo:42049:1,2002-10-02T07:00:00Z,28.3507,-96.0058,2.0,307.2996783,14.14239725,-99999.0,'11111222,11111222,99999999' 
TABS,ioos:station:wmo:42049:1,2002-10-02T07:30:00Z,28.3507,-96.0058,2.0,309.5807101,12.05348497,-99999.0,'11111222,11111222,99999999' 
TABS,ioos:station:wmo:42049:1,2002-10-02T08:00:00Z,28.3507,-96.0058,2.0,301.1813884,13.11459111,-99999.0,'11111222,11111222,99999999' 
TABS,ioos:station:wmo:42049:1,2002-10-02T08:30:00Z,28.3507,-96.0058,2.0,310.0820414,25.23764252,-99999.0,'11111222,11111222,99999999' 
TABS,ioos:station:wmo:42049:1,2002-10-02T09:00:00Z,28.3507,-96.0058,2.0,306.1482324,32.8546085,-99999.0,'11111222,11111222,99999999' 
TABS,ioos:station:wmo:42049:1,2002-10-02T09:30:00Z,28.3507,-96.0058,2.0,306.5011586,29.80661839,-99999.0,'11111222,11111222,99999999' 
TABS,ioos:station:wmo:42049:1,2002-10-02T10:00:00Z,28.3507,-96.0058,2.0,305.8307004,31.85924356,-99999.0,'11111222,11111222,99999999' 
TABS,ioos:station:wmo:42049:1,2002-10-02T10:30:00Z,28.3507,-96.0058,2.0,306.0526333,28.73292536,-99999.0,'11111222,11111222,99999999' 
TABS,ioos:station:wmo:42049:1,2002-10-02T11:00:00Z,28.3507,-96.0058,2.0,306.3302086,26.73718759,-99999.0,'11111222,11111222,99999999' 
TABS,ioos:station:wmo:42049:1,2002-10-02T11:30:00Z,28.3507,-96.0058,2.0,309.1160538,26.69250269,-99999.0,'11111222,11111222,99999999' 
TABS,ioos:station:wmo:42049:1,2002-10-02T12:00:00Z,28.3507,-96.0058,2.0,305.0756556,19.15939717,-99999.0,'11111222,11111222,99999999' 
TABS,ioos:station:wmo:42049:1,2002-10-02T12:30:00Z,28.3507,-96.0058,2.0,299.0427877,22.865041,-99999.0,'11111222,11111222,99999999' 
TABS,ioos:station:wmo:42049:1,2002-10-02T13:00:00Z,28.3507,-96.0058,2.0,302.3572867,20.38520297,-99999.0,'11111222,11111222,99999999' 
TABS,ioos:station:wmo:42049:1,2002-10-02T13:30:00Z,28.3507,-96.0058,2.0,300.8233946,22.34633303,-99999.0,'11111222,11111222,99999999' 
TABS,ioos:station:wmo:42049:1,2002-10-02T14:00:00Z,28.3507,-96.0058,2.0,303.2273945,21.27899434,-99999.0,'11111222,11111222,99999999' 
TABS,ioos:station:wmo:42049:1,2002-10-02T14:30:00Z,28.3507,-96.0058,2.0,300.1144438,27.52511944,-99999.0,'11111222,11111222,99999999' 
TABS,ioos:station:wmo:42049:1,2002-10-02T15:00:00Z,28.3507,-96.0058,2.0,301.8406461,26.12057618,-99999.0,'11111222,11111222,99999999' 
TABS,ioos:station:wmo:42049:1,2002-10-02T15:30:00Z,28.3507,-96.0058,2.0,300.6486,30.2099338,-99999.0,'11111222,11111222,99999999' 
TABS,ioos:station:wmo:42049:1,2002-10-02T16:00:00Z,28.3507,-96.0058,2.0,296.2803594,26.96731355,-99999.0,'11111222,11111222,99999999' 
TABS,ioos:station:wmo:42049:1,2002-10-02T16:30:00Z,28.3507,-96.0058,2.0,286.0807125,26.24692934,-99999.0,'11111222,11111222,99999999' 
TABS,ioos:station:wmo:42049:1,2002-10-02T17:00:00Z,28.3507,-96.0058,2.0,293.6648587,26.15973241,-99999.0,'11111222,11111222,99999999' 
TABS,ioos:station:wmo:42049:1,2002-10-02T17:30:00Z,28.3507,-96.0058,2.0,286.0656656,23.63293676,-99999.0,'11111222,11111222,99999999' 
TABS,ioos:station:wmo:42049:1,2002-10-02T18:00:00Z,28.3507,-96.0058,2.0,279.9080744,20.51596939,-99999.0,'11111222,11111222,99999999' 
TABS,ioos:station:wmo:42049:1,2002-10-02T18:30:00Z,28.3507,-96.0058,2.0,258.5478758,47.54654141,-99999.0,'11111222,11111222,99999999' 
TABS,ioos:station:wmo:42049:1,2002-10-02T19:00:00Z,28.3507,-96.0058,2.0,257.1413961,49.42950637,-99999.0,'11111222,11111222,99999999' 
TABS,ioos:station:wmo:42049:1,2002-10-02T19:30:00Z,28.3507,-96.0058,2.0,244.8916821,47.13366525,-99999.0,'11111222,11111222,99999999' 
TABS,ioos:station:wmo:42049:1,2002-10-02T20:00:00Z,28.3507,-96.0058,2.0,241.6332521,53.20893534,-99999.0,'11111222,11111222,99999999' 
TABS,ioos:station:wmo:42049:1,2002-10-02T20:30:00Z,28.3507,-96.0058,2.0,240.8464996,53.08473604,-99999.0,'11111222,11111222,99999999' 
TABS,ioos:station:wmo:42049:1,2002-10-02T21:00:00Z,28.3507,-96.0058,2.0,237.4361046,52.33775884,-99999.0,'11111222,11111222,99999999' 
TABS,ioos:station:wmo:42049:1,2002-10-02T21:30:00Z,28.3507,-96.0058,2.0,236.8626139,51.14851415,-99999.0,'11111222,11111222,99999999' 
TABS,ioos:station:wmo:42049:1,2002-10-02T22:00:00Z,28.3507,-96.0058,2.0,231.9294456,49.93295705,-99999.0,'11111222,11111222,99999999' 
TABS,ioos:station:wmo:42049:1,2002-10-02T22:30:00Z,28.3507,-96.0058,2.0,226.1353933,43.52390148,-99999.0,'11111222,11111222,99999999' 
TABS,ioos:station:wmo:42049:1,2002-10-02T23:00:00Z,28.3507,-96.0058,2.0,231.347333,47.90317839,-99999.0,'11111222,11111222,99999999' 
TABS,ioos:station:wmo:42049:1,2002-10-02T23:30:00Z,28.3507,-96.0058,2.0,226.002546,38.38056409,-99999.0,'11111222,11111222,99999999' 
TABS,ioos:station:wmo:42049:1,2002-10-03T00:00:00Z,28.3507,-96.0058,2.0,237.3837868,34.32255964,-99999.0,'11111222,11111222,99999999' 
TABS,ioos:station:wmo:42049:1,2002-10-03T00:30:00Z,28.3507,-96.0058,2.0,246.4441764,50.59597612,-99999.0,'11111222,11111222,99999999' 
TABS,ioos:station:wmo:42049:1,2002-10-03T01:00:00Z,28.3507,-96.0058,2.0,258.1855168,58.17225885,-99999.0,'11111222,11111222,99999999' 
TABS,ioos:station:wmo:42049:1,2002-10-03T01:30:00Z,28.3507,-96.0058,2.0,249.6720387,58.11958448,-99999.0,'11111222,11111222,99999999' 
TABS,ioos:station:wmo:42049:1,2002-10-03T02:00:00Z,28.3507,-96.0058,2.0,259.5166948,94.97520992,-99999.0,'11111222,11111222,99999999' 
TABS,ioos:station:wmo:42049:1,2002-10-03T02:30:00Z,28.3507,-96.0058,2.0,257.4587524,92.84515335,-99999.0,'11111222,11111222,99999999' 
TABS,ioos:station:wmo:42049:1,2002-10-03T03:00:00Z,28.3507,-96.0058,2.0,255.1624188,89.70086399,-99999.0,'11111222,11111222,99999999' 
TABS,ioos:station:wmo:42049:1,2002-10-03T03:30:00Z,28.3507,-96.0058,2.0,253.7983022,87.95284646,-99999.0,'11111222,11111222,99999999' 
TABS,ioos:station:wmo:42049:1,2002-10-03T04:00:00Z,28.3507,-96.0058,2.0,254.2380571,83.05274529,-99999.0,'11111222,11111222,99999999' 
TABS,ioos:station:wmo:42049:1,2002-10-03T04:30:00Z,28.3507,-96.0058,2.0,256.8957711,82.57005995,-99999.0,'11111222,11111222,99999999' 
TABS,ioos:station:wmo:42049:1,2002-10-03T05:00:00Z,28.3507,-96.0058,2.0,254.1347668,81.0991307,-99999.0,'11111222,11111222,99999999' 
TABS,ioos:station:wmo:42049:1,2002-10-03T05:30:00Z,28.3507,-96.0058,2.0,252.785492,75.25082923,-99999.0,'11111222,11111222,99999999' 
TABS,ioos:station:wmo:42049:1,2002-10-03T06:00:00Z,28.3507,-96.0058,2.0,252.5094208,74.79803473,-99999.0,'11111222,11111222,99999999' 
TABS,ioos:station:wmo:42049:1,2002-10-03T06:30:00Z,28.3507,-96.0058,2.0,250.7394107,70.69688819,-99999.0,'11111222,11111222,99999999' 
TABS,ioos:station:wmo:42049:1,2002-10-03T07:00:00Z,28.3507,-96.0058,2.0,249.084083,66.78031147,-99999.0,'11111222,11111222,99999999' 
TABS,ioos:station:wmo:42049:1,2002-10-03T07:30:00Z,28.3507,-96.0058,2.0,248.0089626,66.33630755,-99999.0,'11111222,11111222,99999999' 
TABS,ioos:station:wmo:42049:1,2002-10-03T08:00:00Z,28.3507,-96.0058,2.0,248.2713121,65.50408384,-99999.0,'11111222,11111222,99999999' 
TABS,ioos:station:wmo:42049:1,2002-10-03T08:30:00Z,28.3507,-96.0058,2.0,244.493628,58.31319748,-99999.0,'11111222,11111222,99999999' 
TABS,ioos:station:wmo:42049:1,2002-10-03T09:00:00Z,28.3507,-96.0058,2.0,239.0647593,57.8722049,-99999.0,'11111222,11111222,99999999' 
TABS,ioos:station:wmo:42049:1,2002-10-03T09:30:00Z,28.3507,-96.0058,2.0,237.3387427,60.22242107,-99999.0,'11111222,11111222,99999999' 
TABS,ioos:station:wmo:42049:1,2002-10-03T10:00:00Z,28.3507,-96.0058,2.0,238.0533657,59.60795249,-99999.0,'11111222,11111222,99999999' 
TABS,ioos:station:wmo:42049:1,2002-10-03T10:30:00Z,28.3507,-96.0058,2.0,234.7191352,64.7529119,-99999.0,'11111222,11111222,99999999' 
TABS,ioos:station:wmo:42049:1,2002-10-03T11:00:00Z,28.3507,-96.0058,2.0,229.035328,64.70514663,-99999.0,'11111222,11111222,99999999' 
TABS,ioos:station:wmo:42049:1,2002-10-03T11:30:00Z,28.3507,-96.0058,2.0,228.6262937,61.81886201,-99999.0,'11111222,11111222,99999999' 
TABS,ioos:station:wmo:42049:1,2002-10-03T12:00:00Z,28.3507,-96.0058,2.0,222.5127394,54.10219959,-99999.0,'11111222,11111222,99999999' 
TABS,ioos:station:wmo:42049:1,2002-10-03T12:30:00Z,28.3507,-96.0058,2.0,214.2102177,72.97659488,-99999.0,'11111222,11111222,99999999' 
TABS,ioos:station:wmo:42049:1,2002-10-03T13:00:00Z,28.3507,-96.0058,2.0,220.4529003,62.52824402,-99999.0,'11111222,11111222,99999999' 
TABS,ioos:station:wmo:42049:1,2002-10-03T13:30:00Z,28.3507,-96.0058,2.0,219.596188,57.89354109,-99999.0,'11111222,11111222,99999999' 
TABS,ioos:station:wmo:42049:1,2002-10-03T14:00:00Z,28.3507,-96.0058,2.0,223.7827602,61.9282375,-99999.0,'11111222,11111222,99999999' 
TABS,ioos:station:wmo:42049:1,2002-10-03T14:30:00Z,28.3507,-96.0058,2.0,222.0447994,66.9388751,-99999.0,'11111222,11111222,99999999' 
TABS,ioos:station:wmo:42049:1,2002-10-03T15:00:00Z,28.3507,-96.0058,2.0,226.7512245,66.6264467,-99999.0,'11111222,11111222,99999999' 
TABS,ioos:station:wmo:42049:1,2002-10-03T15:30:00Z,28.3507,-96.0058,2.0,227.2090788,61.81172785,-99999.0,'11111222,11111222,99999999' 
TABS,ioos:station:wmo:42049:1,2002-10-03T16:00:00Z,28.3507,-96.0058,2.0,229.607212,58.62476098,-99999.0,'11111222,11111222,99999999' 
TABS,ioos:station:wmo:42049:1,2002-10-03T16:30:00Z,28.3507,-96.0058,2.0,233.8289771,54.08402722,-99999.0,'11111222,11111222,99999999' 
TABS,ioos:station:wmo:42049:1,2002-10-03T17:00:00Z,28.3507,-96.0058,2.0,230.9513576,46.98595641,-99999.0,'11111222,11111222,99999999' 
TABS,ioos:station:wmo:42049:1,2002-10-03T17:30:00Z,28.3507,-96.0058,2.0,232.3432051,46.91242053,-99999.0,'11111222,11111222,99999999' 
TABS,ioos:station:wmo:42049:1,2002-10-03T18:00:00Z,28.3507,-96.0058,2.0,243.4858587,44.98076144,-99999.0,'11111222,11111222,99999999' 
TABS,ioos:station:wmo:42049:1,2002-10-03T18:30:00Z,28.3507,-96.0058,2.0,233.7413998,48.71277553,-99999.0,'11111222,11111222,99999999' 
TABS,ioos:station:wmo:42049:1,2002-10-03T19:00:00Z,28.3507,-96.0058,2.0,233.1025747,50.5680057,-99999.0,'11111222,11111222,99999999' 
TABS,ioos:station:wmo:42049:1,2002-10-03T19:30:00Z,28.3507,-96.0058,2.0,219.4110578,50.24542168,-99999.0,'11111222,11111222,99999999' 
TABS,ioos:station:wmo:42049:1,2002-10-03T20:00:00Z,28.3507,-96.0058,2.0,223.6808808,49.15694254,-99999.0,'11111222,11111222,99999999' 
TABS,ioos:station:wmo:42049:1,2002-10-03T20:30:00Z,28.3507,-96.0058,2.0,226.4247517,41.79586702,-99999.0,'11111222,11111222,99999999' 
TABS,ioos:station:wmo:42049:1,2002-10-03T21:00:00Z,28.3507,-96.0058,2.0,223.212011,39.66678333,-99999.0,'11111222,11111222,99999999' 
TABS,ioos:station:wmo:42049:1,2002-10-03T21:30:00Z,28.3507,-96.0058,2.0,216.4044932,33.26109589,-99999.0,'11111222,11111222,99999999' 
TABS,ioos:station:wmo:42049:1,2002-10-03T22:00:00Z,28.3507,-96.0058,2.0,226.0905036,29.34317808,-99999.0,'11111222,11111222,99999999' 
TABS,ioos:station:wmo:42049:1,2002-10-03T22:30:00Z,28.3507,-96.0058,2.0,245.3715337,33.47517588,-99999.0,'11111222,11111222,99999999' 
TABS,ioos:station:wmo:42049:1,2002-10-03T23:00:00Z,28.3507,-96.0058,2.0,246.0975846,27.9139123,-99999.0,'11111222,11111222,99999999' 
TABS,ioos:station:wmo:42049:1,2002-10-03T23:30:00Z,28.3507,-96.0058,2.0,244.0919693,25.33631781,-99999.0,'11111222,11111222,99999999' 
TABS,ioos:station:wmo:42049:1,2002-10-04T00:00:00Z,28.3507,-96.0058,2.0,236.9914032,30.7658512,-99999.0,'11111222,11111222,99999999' 
TABS,ioos:station:wmo:42049:1,2002-10-04T00:30:00Z,28.3507,-96.0058,2.0,236.7543708,32.86975053,-99999.0,'11111222,11111222,99999999' 
TABS,ioos:station:wmo:42049:1,2002-10-04T01:00:00Z,28.3507,-96.0058,2.0,231.3702056,32.43729489,-99999.0,'11111222,11111222,99999999' 
TABS,ioos:station:wmo:42049:1,2002-10-04T01:30:00Z,28.3507,-96.0058,2.0,244.5294084,25.04406117,-99999.0,'11111222,11111222,99999999' 
TABS,ioos:station:wmo:42049:1,2002-10-04T02:00:00Z,28.3507,-96.0058,2.0,254.9901706,22.70460966,-99999.0,'11111222,11111222,99999999' 
TABS,ioos:station:wmo:42049:1,2002-10-04T02:30:00Z,28.3507,-96.0058,2.0,260.6960958,20.16525725,-99999.0,'11111222,11111222,99999999' 
TABS,ioos:station:wmo:42049:1,2002-10-04T03:00:00Z,28.3507,-96.0058,2.0,267.8558232,18.71309702,-99999.0,'11111222,11111222,99999999' 
TABS,ioos:station:wmo:42049:1,2002-10-04T03:30:00Z,28.3507,-96.0058,2.0,280.1293243,18.93511289,-99999.0,'11111222,11111222,99999999' 
TABS,ioos:station:wmo:42049:1,2002-10-04T04:00:00Z,28.3507,-96.0058,2.0,274.7503706,17.38972398,-99999.0,'11111222,11111222,99999999' 
TABS,ioos:station:wmo:42049:1,2002-10-04T04:30:00Z,28.3507,-96.0058,2.0,274.4416517,15.49653187,-99999.0,'11111222,11111222,99999999' 
TABS,ioos:station:wmo:42049:1,2002-10-04T05:00:00Z,28.3507,-96.0058,2.0,293.1401804,12.79975781,-99999.0,'11111222,11111222,99999999' 
TABS,ioos:station:wmo:42049:1,2002-10-04T05:30:00Z,28.3507,-96.0058,2.0,312.1155173,12.64495156,-99999.0,'11111222,11111222,99999999' 
TABS,ioos:station:wmo:42049:1,2002-10-04T06:00:00Z,28.3507,-96.0058,2.0,328.5659003,11.27469734,-99999.0,'11111222,11111222,99999999' 
TABS,ioos:station:wmo:42049:1,2002-10-04T06:30:00Z,28.3507,-96.0058,2.0,351.8868217,9.707162304,-99999.0,'11133222,11111222,99999999' 
TABS,ioos:station:wmo:42049:1,2002-10-04T07:00:00Z,28.3507,-96.0058,2.0,12.9564361,11.19500782,-99999.0,'11111222,11111222,99999999' 
TABS,ioos:station:wmo:42049:1,2002-10-04T07:30:00Z,28.3507,-96.0058,2.0,27.99786063,11.26883313,-99999.0,'11111222,11111222,99999999' 
TABS,ioos:station:wmo:42049:1,2002-10-04T08:00:00Z,28.3507,-96.0058,2.0,37.01583521,12.57404072,-99999.0,'11111222,11111222,99999999' 
TABS,ioos:station:wmo:42049:1,2002-10-04T08:30:00Z,28.3507,-96.0058,2.0,28.70294424,11.38951272,-99999.0,'11111222,11111222,99999999' 
TABS,ioos:station:wmo:42049:1,2002-10-04T09:00:00Z,28.3507,-96.0058,2.0,22.3110799,14.408671,-99999.0,'11111222,11111222,99999999' 
TABS,ioos:station:wmo:42049:1,2002-10-04T09:30:00Z,28.3507,-96.0058,2.0,32.28413387,15.25884989,-99999.0,'11111222,11111222,99999999' 
TABS,ioos:station:wmo:42049:1,2002-10-04T10:00:00Z,28.3507,-96.0058,2.0,37.0607947,18.02009989,-99999.0,'11111222,11111222,99999999' 
TABS,ioos:station:wmo:42049:1,2002-10-04T10:30:00Z,28.3507,-96.0058,2.0,38.9811302,16.99353406,-99999.0,'11111222,11111222,99999999' 
TABS,ioos:station:wmo:42049:1,2002-10-04T11:00:00Z,28.3507,-96.0058,2.0,51.2758423,20.8289078,-99999.0,'11111222,11111222,99999999' 
TABS,ioos:station:wmo:42049:1,2002-10-04T11:30:00Z,28.3507,-96.0058,2.0,58.55135827,19.85681747,-99999.0,'11111222,11111222,99999999' 
TABS,ioos:station:wmo:42049:1,2002-10-04T12:00:00Z,28.3507,-96.0058,2.0,74.37844863,45.9368534,-99999.0,'11111222,11111222,99999999' 
TABS,ioos:station:wmo:42049:1,2002-10-04T12:30:00Z,28.3507,-96.0058,2.0,85.13884823,50.7425226,-99999.0,'11111222,11111222,99999999' 
TABS,ioos:station:wmo:42049:1,2002-10-04T13:00:00Z,28.3507,-96.0058,2.0,89.20672637,58.50560742,-99999.0,'11111222,11111222,99999999' 
TABS,ioos:station:wmo:42049:1,2002-10-04T13:30:00Z,28.3507,-96.0058,2.0,89.30935735,56.41409842,-99999.0,'11111222,11111222,99999999' 
TABS,ioos:station:wmo:42049:1,2002-10-04T14:00:00Z,28.3507,-96.0058,2.0,88.72099126,51.07272462,-99999.0,'11111222,11111222,99999999' 
TABS,ioos:station:wmo:42049:1,2002-10-04T14:30:00Z,28.3507,-96.0058,2.0,90.89461993,48.67593348,-99999.0,'11111222,11111222,99999999' 
TABS,ioos:station:wmo:42049:1,2002-10-04T15:00:00Z,28.3507,-96.0058,2.0,91.98200833,47.4183688,-99999.0,'11111222,11111222,99999999' 
TABS,ioos:station:wmo:42049:1,2002-10-04T15:30:00Z,28.3507,-96.0058,2.0,95.02277448,48.65684433,-99999.0,'11111222,11111222,99999999' 
TABS,ioos:station:wmo:42049:1,2002-10-04T16:00:00Z,28.3507,-96.0058,2.0,96.81104029,42.32872901,-99999.0,'11111222,11111222,99999999' 